Regional Weather Roundup
Issued by NWS

Home | Current Version | Previous Version | Graphics & Text | Print | Product List | Glossary On
Versions: 1 2 3 4 5 6 7 8 9 10 11 12 13 14 15 16 17 18 19 20 21 22 23 24 25 26 27 28 29 30 31 32 33 34 35 36 37 38 39 40 41 42 43 44 45 46 47 48 49 50
000
ASUS43 KLMK 270210
RWRKY
KENTUCKY REGIONAL WEATHER ROUNDUP
NATIONAL WEATHER SERVICE LOUISVILLE KY
900 PM EST WED NOV 26 2014

NOTE "FAIR" INDICATES FEW OR NO CLOUDS BELOW 12,000 FEET
WITH NO SIGNIFICANT WEATHER AND/OR OBSTRUCTIONS TO VISIBILITY.

KYZ001>023-026-027-061>063-070>075-270300-
WESTERN AND SOUTH CENTRAL KENTUCKY

CITY           SKY/WX    TMP DP  RH WIND       PRES   REMARKS
PADUCAH        MOCLDY    37  33  85 W9        30.05S WCI  30
HENDERSON      CLOUDY    34  30  86 NE6       30.04S WCI  29
OWENSBORO      LGT SNOW  34  34 100 MISG      30.04F FOG
HOPKINSVILLE   CLOUDY    39  39 100 W2        30.02R
BOWLING GREEN  LGT RAIN  39  35  86 CALM      30.03F
GLASGOW        LGT RAIN  36  36 100 CALM      30.03F
$$

KYZ024-025-028>034-038-045-046-053-270300-
NORTH CENTRAL KENTUCKY

CITY           SKY/WX    TMP DP  RH WIND       PRES   REMARKS
LOUISVILLE/SDF CLOUDY    40  29  64 NW5       30.05R
LOUISVILLE/LOU CLOUDY    39  29  67 CALM      30.06R
FORT KNOX      CLOUDY    38  27  65 W8        30.03R WCI  32
$$

KYZ035>037-039>044-047>052-055>060-089>105-270300-
NORTHEAST KENTUCKY

CITY           SKY/WX    TMP DP  RH WIND       PRES   REMARKS
LEXINGTON      CLOUDY    34  29  82 N3        30.02R
COVINGTON      CLOUDY    34  24  67 NE9       30.04R WCI  27
FRANKFORT      CLOUDY    36  28  73 N3        30.02R
$$

KYZ054-064>069-076>088-106>120-270300-
SOUTHEAST KENTUCKY

CITY           SKY/WX    TMP DP  RH WIND       PRES   REMARKS
JACKSON        CLOUDY    38  27  64 NE3       29.98F
LONDON         CLOUDY    40  26  57 CALM      29.99S
SOMERSET       CLOUDY    37  28  70 CALM      30.02R
MIDDLESBORO    NOT AVBL
MONTICELLO     CLOUDY    41  28  60 W9        30.05R
$$




USA.gov is the U.S. government's official web portal to all federal, state and local government web resources and services.